Location: Albany
(35.0000°S, 118.0000°E)
Time: 22:53:26
(UTC-04:00)

Daily predictions for brighter satellites

Satellite Brightness Start Highest point End
(mag) Time Altitude Azimuth Time Altitude Azimuth Time Altitude Azimuth
SL-16 R/B 4.2 15:10:22 10° SSE 15:13:21 27° SE 15:13:21 27° SE
Cosmos 2082 Rocket 4.3 15:55:02 17° NNE 15:55:02 17° NNE 15:56:17 10° NNE
Cosmos 1833 Rocket 3.7 16:10:03 37° NNE 16:10:03 37° NNE 16:13:18 10° NNE
OTV 4 4.2 16:11:11 10° E 16:11:11 10° E 16:11:11 10° E
NOSS 3-1 (A) 4.1 16:07:10 28° S 16:10:10 51° SE 16:15:48 10° NE
Cosmos 2369 Rocket 3.9 16:05:26 10° NNE 16:10:19 30° ENE 16:15:15 10° SE
Tiangong 1 4.4 16:15:03 13° E 16:15:03 13° E 16:15:31 10° E
Cosmos 1331 Rocket 4.3 16:19:08 53° NNE 16:20:12 66° ENE 16:25:30 10° SSE
NOSS 3-1 (C) 3.3 16:21:53 53° SSW 16:23:25 84° ESE 16:29:11 10° NNE
CZ-3C R/B 4.2 16:17:25 15° NNW 16:23:31 30° NE 16:56:28 10° E
ATLAS 2AS CENTAUR R/B 4.5 16:21:35 10° S 16:26:25 24° SE 16:31:27 10° E
BREEZE-M DEB (TANK) 4.5 16:26:41 47° WNW 16:29:35 78° SSW 17:01:57 10° SE
Radarsat Rocket 3.9 16:24:30 10° N 16:31:10 73° WNW 16:37:15 10° SSW
CZ-4 R/B 4.2 16:29:04 10° ENE 16:31:41 17° ESE 16:34:22 10° SSE
MOZ.5/SAFIR/RUBIN 5/SL-8 3.7 16:31:48 10° SSE 16:36:37 90° NW 16:37:34 57° NNW
Sich 1 Rocket 3.6 16:36:39 52° N 16:37:42 83° E 16:42:20 10° S
BREEZE-M R/B 4.2 16:38:30 37° SSW 16:38:30 37° SSW 16:41:31 10° SSE
Ariane Rocket 2.9 16:33:05 10° NNE 16:38:13 85° WNW 16:43:25 10° SSW
Hubble Space Telescope 2.1 16:43:06 28° N 16:43:10 28° N 16:46:47 10° ENE
Cosmos 1606 3.0 16:39:25 10° S 16:43:21 67° E 16:47:17 10° NNE
Cosmos 2074 Rocket 3.9 16:40:02 10° N 16:46:19 79° W 16:52:43 10° S
Cosmos 2327 Rocket 4.4 16:42:15 10° N 16:48:33 79° W 16:55:02 10° S
Cosmos 2184 Rocket 3.9 16:43:32 10° N 16:49:49 78° W 16:56:08 10° S
Cosmos 1818 4.0 16:52:47 40° SW 16:52:47 40° SW 16:57:49 10° SSE
Cosmos 1110 Rocket 4.2 16:55:19 44° W 16:56:12 48° WSW 17:01:25 10° S
ATLAS CENTAUR R/B 4.0 16:54:42 10° NNE 16:56:54 16° ENE 16:59:06 10° ESE
Cosmos 1242 Rocket 2.8 16:53:25 10° S 16:57:00 68° E 17:00:34 10° NNE
SL-16 R/B 3.7 16:54:41 10° SSW 16:58:28 24° SW 16:58:28 24° SW
Cosmos 1674 Rocket 3.7 16:55:49 10° SSW 17:00:12 50° W 17:04:32 10° NNW
Meteor 1-10 Rocket 4.5 16:54:33 10° SSW 17:00:18 49° W 17:06:01 10° NNW
Meteor 1-27 Rocket 3.7 16:54:41 10° S 17:00:39 86° W 17:06:25 10° N
DELTA 2 R/B (1) 3.5 17:03:11 36° WNW 17:05:35 81° SSW 17:11:16 10° ESE
Cosmos 1610 Rocket 4.4 16:59:45 10° N 17:05:58 81° W 17:12:12 10° S
IRS-1A Rocket 4.2 17:07:04 10° N 17:12:53 76° WNW 17:18:38 10° SSW
Delta 2 Rocket 2.7 17:14:21 46° WNW 17:15:16 86° N 17:18:47 10° E
BREEZE-M DEB (TANK) 4.3 17:12:56 13° SW 17:15:43 24° SSE 17:17:53 10° ESE
Okean 2 Rocket 3.2 17:11:44 10° N 17:16:16 83° E 17:20:51 10° S
DELTA 2 R/B (2) 4.3 17:19:03 34° SE 17:19:03 34° SE 17:20:24 10° ESE
Nadezhda 3 Rocket 4.2 17:16:16 10° S 17:22:33 78° E 17:28:50 10° N
IUS-7 SRM-1 4.2 17:22:00 13° NNW 17:23:17 18° NNE 17:26:06 10° ENE
Cosmos 1378 Rocket 3.5 17:18:59 10° SSW 17:23:18 57° W 17:27:33 10° N
SPOT 3 Rocket 3.7 17:18:18 10° NNE 17:23:31 77° ESE 17:28:50 10° S
CSL-04 Rocket 4.0 17:19:06 10° N 17:24:04 41° W 17:29:07 10° SSW
IDEFIX/ARIANE 42P 4.2 17:20:06 10° NE 17:24:56 37° ESE 17:29:48 10° S
SeaSat 1 2.7 17:22:17 10° SSE 17:27:17 74° ENE 17:32:13 10° NNW
Cosmos 839 Rocket 4.1 17:23:59 10° NNW 17:30:09 89° WSW 17:37:19 10° SSE
Cosmos 1238 Rocket 2.2 17:28:31 10° SSW 17:32:06 66° W 17:35:10 10° N
Cosmos 44 Rocket 3.3 17:31:04 10° SW 17:35:52 62° WNW 17:40:48 10° NNE
Cosmos 1408 3.9 17:37:50 15° WNW 17:39:43 21° WSW 17:42:42 10° SSW
Cosmos 1782 Rocket 4.0 17:35:48 10° NNW 17:39:56 40° W 17:44:08 10° S
Cosmos 44 3.7 17:36:38 10° SSW 17:41:21 66° ESE 17:46:18 10° NE
CZ-3B DEB 3.7 17:41:19 10° SSE 17:43:13 14° SE 17:46:06 10° E
Cosmos 1825 3.6 17:42:02 13° WNW 17:44:09 19° WSW 17:46:59 10° SSW
OTV 4 0.9 17:42:42 19° WSW 17:44:37 49° S 17:47:34 10° ESE
Thor Agena Rocket 4.0 17:42:52 10° S 17:47:31 36° WSW 17:52:08 10° NW
Tiangong 1 1.4 17:47:03 16° W 17:49:20 48° SSW 17:52:23 10° SE
Okean 3 4.2 17:47:17 10° SSW 17:51:14 33° W 17:55:07 10° NNW
Cosmos 1975 Rocket 3.4 17:47:03 10° SSW 17:51:15 43° W 17:55:22 10° NNW
Cosmos 2344 4.2 17:41:16 10° SW 17:53:02 75° WNW 18:01:42 10° NNE
Cosmos 2369 Rocket 2.9 17:49:07 10° NW 17:54:12 33° WSW 17:59:22 10° S
MOS 1 4.4 17:48:59 10° N 17:54:35 57° WNW 18:00:16 10° SSW
deb Kosmos-1763 4.2 17:51:05 10° SSW 17:55:05 84° WNW 17:59:02 10° NNE
USA 116 4.3 17:56:00 10° SSW 17:59:03 30° WSW 18:02:20 10° NW
PAYLOAD A 4.1 17:55:17 10° N 18:00:14 55° W 18:05:04 10° SSW
H-2A ROCKET BODY 3.6 17:59:31 10° NW 18:02:58 23° N 18:11:51 10° NE
SJ-12 4.0 17:58:58 10° N 18:03:03 57° W 18:07:10 10° SSW
Cosmos 1536 Rocket 3.9 18:00:25 10° S 18:04:54 75° E 18:09:22 10° N
CZ-4 R/B 2.2 18:03:05 10° NNW 18:06:30 28° W 18:09:59 10° SW
SKYMED 2 3.9 18:04:58 10° SSE 18:09:24 74° ENE 18:13:45 10° N
Milstar 3 Cent rocket 4.3 18:07:05 10° NW 18:13:36 48° NNE 18:26:40 10° E
